Вернуться в каталог

KAZEOSAT 1

АктивенНаукаSSO
NORAD 39731·PAYLOAD·🇰🇿 Kazakhstan

Запущен Apr 30, 2014 с Guiana Space Centre

Loading…

Ближайшие Пролёты (ближайшие 24 часа)

TLE

СвежийSource: Space-Track

Эпоха: Sep 14, 2026, 14:22 UTC

1 39731U 14024A   26257.59892052  .00000181  00000-0  68236-4 0  9995
2 39731  98.3135 327.7851 0001409  91.8292 268.3059 14.42064044651444

Отслеживайте KAZEOSAT 1 в реальном времени с AllMySat

Download on the App Store